When you browse on this site, cookies collect data to enhance your experience and personalize the content and advertising you see.
Visit our Privacy Policy to learn more. By continuing to use the site, you agree to this use of cookies and data.
  • In Hungary
  • List of Countries
  • For 7 days
  • Water Temperature
  • Satellite Maps
  • Weather Map
  • News
  • Weather Widgets
  • user-avatar
    Login

    Hourly Weather Radziadz

    Today, 21 May, Tuesday

    Time Temperature Precipitation Wind Pressure Humidity
    00:00 +13°C° 0 mm 3 mps 744 mmHg 85%
    01:00 +14°C° 0 mm 2 mps 744 mmHg 88%
    02:00 +13°C° 0 mm 2 mps 744 mmHg 89%
    03:00 +13°C° 0 mm 2 mps 745 mmHg 91%
    04:00 +12°C° 0 mm 1 mps 745 mmHg 92%
    05:00 +14°C° 0 mm 1 mps 745 mmHg 87%
    06:00 +15°C° 0 mm 1 mps 745 mmHg 82%
    07:00 +18°C° 0 mm 1 mps 745 mmHg 76%
    08:00 +19°C° 0 mm 1 mps 745 mmHg 73%
    09:00 +20°C° 0 mm 1 mps 745 mmHg 69%
    10:00 +21°C° 0 mm 1 mps 745 mmHg 66%
    11:00 +22°C° 0.1 mm 1 mps 745 mmHg 63%
    12:00 +23°C° 0.1 mm 1 mps 745 mmHg 60%
    13:00 +24°C° 0.1 mm 1 mps 744 mmHg 57%
    14:00 +23°C° 0.7 mm 1 mps 744 mmHg 60%
    15:00 +23°C° 0.7 mm 2 mps 744 mmHg 64%
    16:00 +22°C° 0.7 mm 3 mps 744 mmHg 67%
    17:00 +21°C° 0.4 mm 3 mps 744 mmHg 74%
    18:00 +20°C° 0.4 mm 3 mps 743 mmHg 80%
    19:00 +18°C° 0.4 mm 3 mps 743 mmHg 86%
    20:00 +18°C° 0.5 mm 3 mps 744 mmHg 88%
    21:00 +17°C° 0.5 mm 3 mps 744 mmHg 91%
    22:00 +15°C° 0.5 mm 4 mps 744 mmHg 93%
    23:00 +15°C° 2.1 mm 4 mps 744 mmHg 94%

    Tomorrow, 22 May, Wednesday

    Time Temperature Precipitation Wind Pressure Humidity
    00:00 +16°C° 2.1 mm 3 mps 744 mmHg 96%
    01:00 +14°C° 2.1 mm 3 mps 744 mmHg 97%
    02:00 +14°C° 1.4 mm 3 mps 744 mmHg 98%
    03:00 +14°C° 1.4 mm 3 mps 744 mmHg 98%
    04:00 +14°C° 1.4 mm 3 mps 744 mmHg 98%
    05:00 +16°C° 0.1 mm 3 mps 744 mmHg 96%
    06:00 +15°C° 0.1 mm 4 mps 745 mmHg 94%
    07:00 +17°C° 0.1 mm 4 mps 745 mmHg 92%
    08:00 +17°C° 0.1 mm 4 mps 745 mmHg 88%
    09:00 +17°C° 0.1 mm 5 mps 745 mmHg 84%
    10:00 +19°C° 0.1 mm 5 mps 746 mmHg 81%
    11:00 +19°C° 0.6 mm 6 mps 746 mmHg 81%
    12:00 +19°C° 0.6 mm 6 mps 746 mmHg 80%
    13:00 +20°C° 0.6 mm 6 mps 746 mmHg 80%
    14:00 +18°C° 0.7 mm 7 mps 746 mmHg 83%
    15:00 +18°C° 0.7 mm 7 mps 747 mmHg 85%
    16:00 +17°C° 0.7 mm 8 mps 747 mmHg 87%
    17:00 +16°C° 0.3 mm 7 mps 747 mmHg 89%
    18:00 +15°C° 0.3 mm 7 mps 748 mmHg 91%
    19:00 +14°C° 0.3 mm 7 mps 748 mmHg 93%
    20:00 +14°C° 0.1 mm 7 mps 749 mmHg 93%
    21:00 +14°C° 0.1 mm 7 mps 749 mmHg 93%
    22:00 +12°C° 0.1 mm 7 mps 750 mmHg 93%
    23:00 +12°C° 0.1 mm 7 mps 750 mmHg 94%

    Day after tomorrow, 23 May, Thursday

    Time Temperature Precipitation Wind Pressure Humidity
    00:00 +13°C° 0.1 mm 6 mps 750 mmHg 94%
    01:00 +13°C° 0.1 mm 6 mps 750 mmHg 94%
    02:00 +11°C° 0.1 mm 6 mps 751 mmHg 94%
    03:00 +11°C° 0.1 mm 6 mps 751 mmHg 94%
    04:00 +11°C° 0.1 mm 6 mps 751 mmHg 94%
    05:00 +10°C° 0.1 mm 6 mps 752 mmHg 94%
    06:00 +10°C° 0.1 mm 6 mps 752 mmHg 93%
    07:00 +10°C° 0.1 mm 6 mps 752 mmHg 93%
    08:00 +10°C° 0.1 mm 6 mps 753 mmHg 92%
    09:00 +10°C° 0.1 mm 6 mps 753 mmHg 91%
    10:00 +10°C° 0.1 mm 6 mps 754 mmHg 90%
    11:00 +11°C° 0 mm 6 mps 754 mmHg 85%
    12:00 +13°C° 0 mm 5 mps 754 mmHg 79%
    13:00 +14°C° 0 mm 5 mps 754 mmHg 74%
    14:00 +15°C° 0 mm 5 mps 754 mmHg 69%
    15:00 +16°C° 0 mm 5 mps 753 mmHg 64%
    16:00 +17°C° 0 mm 5 mps 753 mmHg 59%
    17:00 +17°C° 0 mm 4 mps 753 mmHg 64%
    18:00 +16°C° 0 mm 3 mps 753 mmHg 69%
    19:00 +14°C° 0 mm 3 mps 753 mmHg 75%
    20:00 +13°C° 0 mm 3 mps 754 mmHg 77%
    21:00 +13°C° 0 mm 2 mps 754 mmHg 80%
    22:00 +10°C° 0 mm 2 mps 754 mmHg 83%
    23:00 +9°C° 0 mm 2 mps 754 mmHg 83%

    24 May, Friday

    Time Temperature Precipitation Wind Pressure Humidity
    00:00 +9°C° 0 mm 2 mps 754 mmHg 84%
    01:00 +8°C° 0 mm 2 mps 754 mmHg 84%
    02:00 +7°C° 0 mm 2 mps 754 mmHg 85%
    03:00 +7°C° 0 mm 2 mps 754 mmHg 86%
    04:00 +6°C° 0 mm 2 mps 754 mmHg 88%
    05:00 +8°C° 0 mm 2 mps 754 mmHg 82%
    06:00 +10°C° 0 mm 2 mps 754 mmHg 77%
    07:00 +13°C° 0 mm 2 mps 754 mmHg 71%
    08:00 +14°C° 0 mm 2 mps 754 mmHg 68%
    09:00 +16°C° 0 mm 2 mps 753 mmHg 65%
    10:00 +17°C° 0 mm 2 mps 753 mmHg 62%
    11:00 +18°C° 0.1 mm 2 mps 753 mmHg 61%
    12:00 +19°C° 0.1 mm 2 mps 752 mmHg 60%
    13:00 +19°C° 0.1 mm 2 mps 752 mmHg 59%
    14:00 +20°C° 0.1 mm 2 mps 752 mmHg 58%
    15:00 +20°C° 0.1 mm 2 mps 751 mmHg 58%
    16:00 +20°C° 0.1 mm 2 mps 751 mmHg 57%
    17:00 +19°C° 0 mm 2 mps 751 mmHg 62%
    18:00 +19°C° 0 mm 1 mps 750 mmHg 67%
    19:00 +18°C° 0 mm 1 mps 750 mmHg 72%
    20:00 +16°C° 0 mm 2 mps 750 mmHg 74%
    21:00 +15°C° 0 mm 2 mps 750 mmHg 76%
    22:00 +14°C° 0 mm 2 mps 750 mmHg 78%
    23:00 +12°C° 0.1 mm 3 mps 750 mmHg 80%

    25 May, Saturday

    Time Temperature Precipitation Wind Pressure Humidity
    00:00 +12°C° 0.1 mm 3 mps 750 mmHg 82%
    01:00 +12°C° 0.1 mm 3 mps 750 mmHg 84%
    02:00 +11°C° 0 mm 3 mps 750 mmHg 87%
    03:00 +11°C° 0 mm 3 mps 750 mmHg 90%
    04:00 +11°C° 0 mm 3 mps 750 mmHg 94%
    05:00 +11°C° 0 mm 4 mps 750 mmHg 91%
    06:00 +12°C° 0 mm 4 mps 750 mmHg 89%
    07:00 +13°C° 0 mm 5 mps 751 mmHg 87%
    08:00 +13°C° 0 mm 5 mps 751 mmHg 82%
    09:00 +13°C° 0 mm 5 mps 751 mmHg 77%
    10:00 +14°C° 0 mm 5 mps 751 mmHg 72%
    11:00 +14°C° 0 mm 5 mps 751 mmHg 70%
    12:00 +15°C° 0 mm 5 mps 751 mmHg 68%
    13:00 +15°C° 0 mm 6 mps 751 mmHg 66%
    14:00 +15°C° 0 mm 6 mps 751 mmHg 67%
    15:00 +15°C° 0 mm 6 mps 751 mmHg 67%
    16:00 +15°C° 0 mm 6 mps 751 mmHg 67%
    17:00 +14°C° 0 mm 5 mps 751 mmHg 70%
    18:00 +14°C° 0 mm 5 mps 751 mmHg 73%
    19:00 +13°C° 0 mm 4 mps 751 mmHg 75%
    20:00 +12°C° 0 mm 4 mps 751 mmHg 77%
    21:00 +12°C° 0 mm 4 mps 751 mmHg 78%
    22:00 +11°C° 0 mm 4 mps 751 mmHg 80%
    23:00 +11°C° 0.1 mm 4 mps 751 mmHg 83%

    26 May, Sunday

    Time Temperature Precipitation Wind Pressure Humidity
    00:00 +10°C° 0.1 mm 5 mps 750 mmHg 86%
    01:00 +9°C° 0.1 mm 5 mps 750 mmHg 88%
    02:00 +9°C° 0.1 mm 5 mps 750 mmHg 88%
    03:00 +9°C° 0.1 mm 5 mps 750 mmHg 88%
    04:00 +9°C° 0.1 mm 5 mps 750 mmHg 89%
    05:00 +9°C° 0.1 mm 5 mps 750 mmHg 87%
    06:00 +8°C° 0.1 mm 5 mps 750 mmHg 85%
    07:00 +8°C° 0.1 mm 6 mps 750 mmHg 83%
    08:00 +8°C° 0.1 mm 6 mps 750 mmHg 82%
    09:00 +8°C° 0.1 mm 6 mps 750 mmHg 81%
    10:00 +8°C° 0.1 mm 6 mps 750 mmHg 80%
    11:00 +9°C° 0 mm 7 mps 750 mmHg 76%
    12:00 +10°C° 0 mm 7 mps 750 mmHg 72%
    13:00 +11°C° 0 mm 8 mps 750 mmHg 68%
    14:00 +11°C° 0 mm 7 mps 749 mmHg 69%
    15:00 +11°C° 0 mm 7 mps 749 mmHg 70%
    16:00 +10°C° 0 mm 7 mps 749 mmHg 71%
    17:00 +10°C° 0 mm 6 mps 749 mmHg 72%
    18:00 +10°C° 0 mm 5 mps 749 mmHg 74%
    19:00 +11°C° 0 mm 4 mps 749 mmHg 75%
    20:00 +10°C° 0 mm 4 mps 749 mmHg 76%
    21:00 +10°C° 0 mm 4 mps 749 mmHg 77%
    22:00 +8°C° 0 mm 4 mps 750 mmHg 78%
    23:00 +8°C° 0 mm 4 mps 750 mmHg 77%
    Show more